{"data":{"norad_id":41382,"intl_designator":"2016-014A","name":"EUTELSAT 65 WEST A","alt_names":[],"object_type":"PAYLOAD","status":"ACTIVE","operator":null,"country":"EUTE","launch_date":"2016-03-09","launch_site_code":"FRGUI","launch_vehicle":null,"mission":null,"orbit_class":"UNKNOWN","rcs_meters":47.7519,"size_class":null,"mass_kg":null,"dimensions":null,"purposes":["comms"],"wikipedia_slug":null,"has_3d_model":false,"image_url":null,"decayed_at":null,"tle_current":{"epoch":"2026-05-25T04:31:38.768160Z","epoch_age_seconds":51897,"freshness":"FRESH","line1":"1 41382U 16014A   26145.18864315 -.00000278  00000+0  00000+0 0  9990","line2":"2 41382   0.0653  34.4313 0002432  21.5383 189.5263  1.00272900 37291","mean_motion":1.002729,"eccentricity":0.0002432,"inclination_deg":0.0653,"raan_deg":34.4313,"arg_perigee_deg":21.5383,"mean_anomaly_deg":189.5263,"bstar":0,"rev_number":3729,"period_min":1436.080935128,"perigee_km":35776.028002316,"apogee_km":35796.536775907,"semimajor_km":42164.419389111,"source":"CELESTRAK","updated_at":"2026-05-25T13:38:14.000750Z"}}}